TimeEDT,TemperatureF,Dew PointF,Humidity,Sea Level PressureIn,VisibilityMPH,Wind Direction,Wind SpeedMPH,Gust SpeedMPH,PrecipitationIn,Events,Conditions,WindDirDegrees,DateUTC
12:54 AM,61.0,53.1,75,30.25,10.0,SE,5.8,-,N/A,,Clear,130,2013-08-18 04:54:00
1:54 AM,61.0,53.1,75,30.24,10.0,SSE,5.8,-,N/A,,Clear,150,2013-08-18 05:54:00
2:54 AM,60.1,53.1,78,30.24,10.0,South,3.5,-,N/A,,Clear,170,2013-08-18 06:54:00
3:54 AM,60.1,53.1,78,30.23,10.0,South,4.6,-,N/A,,Clear,170,2013-08-18 07:54:00
4:54 AM,60.1,53.1,78,30.24,10.0,South,3.5,-,N/A,,Overcast,170,2013-08-18 08:54:00
5:54 AM,59.0,53.1,81,30.24,10.0,SSE,5.8,-,N/A,,Mostly Cloudy,150,2013-08-18 09:54:00
6:54 AM,57.9,53.1,84,30.25,10.0,SSE,8.1,-,0.00,Rain,Light Rain,160,2013-08-18 10:54:00
7:54 AM,57.0,55.0,93,30.27,10.0,Calm,Calm,-,0.00,Rain,Light Rain,0,2013-08-18 11:54:00
8:54 AM,57.0,54.0,89,30.28,10.0,SSE,6.9,-,0.01,Rain,Light Rain,150,2013-08-18 12:54:00
9:54 AM,55.9,52.0,87,30.29,10.0,SSE,8.1,-,0.00,,Overcast,150,2013-08-18 13:54:00
10:54 AM,57.0,51.1,81,30.29,10.0,SSE,8.1,-,N/A,,Mostly Cloudy,150,2013-08-18 14:54:00
11:15 AM,57.2,51.8,82,30.31,10.0,SSE,5.8,-,N/A,,Overcast,160,2013-08-18 15:15:00
11:40 AM,59.0,51.8,77,30.29,10.0,SSE,5.8,-,N/A,,Mostly Cloudy,160,2013-08-18 15:40:00
11:54 AM,60.1,53.1,78,30.27,10.0,SSE,8.1,-,N/A,,Partly Cloudy,160,2013-08-18 15:54:00
12:54 PM,62.1,53.1,72,30.27,10.0,SE,8.1,-,N/A,,Mostly Cloudy,140,2013-08-18 16:54:00
1:54 PM,63.0,53.1,70,30.25,10.0,SE,8.1,-,N/A,,Overcast,140,2013-08-18 17:54:00
2:54 PM,62.1,55.0,78,30.25,10.0,South,6.9,-,N/A,,Mostly Cloudy,170,2013-08-18 18:54:00
3:25 PM,62.6,55.4,77,30.25,10.0,South,6.9,-,N/A,,Overcast,190,2013-08-18 19:25:00
3:54 PM,62.1,55.9,80,30.23,10.0,SE,4.6,-,N/A,,Overcast,130,2013-08-18 19:54:00
4:54 PM,63.0,55.9,78,30.22,10.0,Calm,Calm,-,N/A,,Partly Cloudy,0,2013-08-18 20:54:00
5:54 PM,63.0,57.0,81,30.21,10.0,South,6.9,-,N/A,,Mostly Cloudy,170,2013-08-18 21:54:00
6:54 PM,64.0,57.9,80,30.20,10.0,South,4.6,-,N/A,,Mostly Cloudy,190,2013-08-18 22:54:00
7:54 PM,61.0,57.0,87,30.21,10.0,Calm,Calm,-,N/A,,Scattered Clouds,0,2013-08-18 23:54:00
8:54 PM,60.1,57.0,90,30.21,10.0,South,5.8,-,N/A,,Scattered Clouds,170,2013-08-19 00:54:00
9:54 PM,60.1,55.9,86,30.22,10.0,SSE,3.5,-,N/A,,Scattered Clouds,160,2013-08-19 01:54:00
10:54 PM,59.0,55.9,90,30.21,10.0,South,4.6,-,N/A,,Partly Cloudy,170,2013-08-19 02:54:00
11:54 PM,59.0,57.0,93,30.21,10.0,SW,3.5,-,N/A,,Mostly Cloudy,220,2013-08-19 03:54:00